User: anonymous   Login
Location: Unspecified
(0.0000°N, 0.0000°E)
Time: 01:09:07
(UTC+00:00)
Language:

GALILEO 10 (206) - Orbit

View from above orbital plane
View from above orbital plane
View from above satellite
View from above satellite

Ground track
Ground track

The orbit data is extracted from the following two-line orbital elements,

1 40890U 15045B   17292.00656931 -.00000040 +00000-0 +00000-0 0  9992
2 40890 056.9238 308.7529 0002423 269.6721 090.3358 01.70474853013117
Epoch (UTC): 19 October 2017 00:09:27
Eccentricity: 0.0002423
inclination: 56.9238°
perigee height: 23214 km
apogee height: 23229 km
right ascension of ascending node: 308.7529°
argument of perigee: 269.6721°
revolutions per day: 1.70474853
mean anomaly at epoch: 90.3358°
orbit number at epoch: 1311

The dashed part of the orbit path shows where the satellite is in the earth's shadow,  

DLR